Tracking 23762 objects as of 21-Oct-2021
HD Live streaming from Space Station
objects crossing your sky now

SL-8 R/B

Track SL-8 R/B now!
10-day predictions


NORAD ID: 12092
Int'l Code: 1980-099B
Perigee: 959.6 km
Apogee: 1,003.5 km
Inclination: 82.9 °
Period: 104.6 minutes
Semi major axis: 7352 km
RCS: 4.7538 m2 (large)
Launch date: December 10, 1980
Source: Commonwealth of Independent States (former USSR) (CIS)
Launch site: PLESETSK MISSILE AND SPACE COMPLEX (PKMTR)

Note: This is a ROCKET BODY
aabbcc
Your satellite tracking list
Your tracking list is empty




NASA's NSSDC Master Catalog

Two Line Element Set (TLE):
1 12092U 80099B   21293.70464059  .00000128  00000-0  11379-3 0  9997
2 12092  82.9396 144.5627 0029847 346.1644  83.4097 13.77028878 52357
Source of the keplerian elements: AFSPC